Airfield :
LOGIN :

Register | Disclaimer

   EN    FR    IT 

 










Legend :    VFR   Marginal VFR   IFR   Intensive IFR   Very Intensive IFR
Visi :
Ceiling :
>= 8 km
>= 3000ft
5 to 8 km
1000 to 3000 ft
1500m to 5 km
500 to 1000 ft
800 to 1500m
200 to 500 ft
< 800m
< 200 ft
Symbols :   Thunderstorms  Fog  Heavy snow  Heavy precipitations  Wind > 20 kt
SIGMETs :     Misc.  Thunderstorms  Icing  Turbulence  Mountain Waves  Volcanic Ashes







- Airport Elevation : 18 ft
- IATA code : AJA
- Download approach charts


LFKJ - Ajaccio

CURRENT METAR :
  • 240030Z AUTO 06004KT CAVOK 19/16 Q1016 NOSIG

EXPIRED METARs :
  • 240000Z AUTO 03003KT CAVOK 19/17 Q1016 NOSIG
  • 232330Z AUTO 04005KT 010V070 CAVOK 20/17 Q1016 NOSIG
  • 232300Z AUTO 07003KT CAVOK 20/17 Q1016 NOSIG
  • 232230Z AUTO 05005KT CAVOK 20/17 Q1016 NOSIG
  • 232200Z AUTO 06004KT CAVOK 21/18 Q1016 NOSIG

TAF TAF LFKJ
Valid from the 23 at 21:00 until the 24 at 21:00 UTC


232000Z 2321/2421 04004KT CAVOK
BECMG 2408/2410 24010KT
TEMPO 2412/2415 FEW030CB
BECMG 2418/2420 05004KT
ATIS : +33 4 95 23 59 85
No reported NOTAMs for that airfield.



MET'MAP, your aeronautical weather chart ! - Copyright ORBIFLY December 2007 - Disclaimer

ORBIFLY MET'MAP TEAM :

Programming & Development : Alexandra Zaïnal
Concept & Development : Baudouin d'Aumeries
Co-Development & Prog : Marc-Olivier Méhu
Technical & hardware support : Manuel Goepfert

Contact : metmap@orbifly.com




SOURCES & CREDITS :

   NOAA